User: anonymous   Login
Location: Unspecified
(0.0000°N, 0.0000°E)
Time: 01:34:49
(UTC+02:00)
Language:

YAOGAN 3 - Orbit

View from above orbital plane
View from above orbital plane
View from above satellite
View from above satellite

Ground track
Ground track

The orbit data is extracted from the following two-line orbital elements,

1 32289U 07055A   15108.50950585  .00001319  00000-0  17965-3 0  9998
2 32289 097.9622 103.2199 0001447 059.2241 300.9114 14.80396056401730
Epoch (UTC): 18 April 2015 12:13:41
Eccentricity: 0.0001447
inclination: 97.9622°
perigee height: 627 km
apogee height: 629 km
right ascension of ascending node: 103.2199°
argument of perigee: 59.2241°
revolutions per day: 14.80396056
mean anomaly at epoch: 300.9114°
orbit number at epoch: 40173

The dashed part of the orbit path shows where the satellite is in the earth's shadow,  

DLR